Overview Statistics Trail Chart Weather Telemetry Raw packets
 

This is the latest recevied weather packets stored in our database for station/object WA6ODQ-13. If no packets are shown the sender has not sent any weather packets the latest 10 day(s).

<< 12 13 14 15 16 17 18 >>
Time Temp. Humidity Pressure Rain* Wind** Luminosity Snow
1788579810 18.89° C 62% 1011.3 hPa 0 mm - 0 W/m² -
1788579509 19.44° C 62% 1011.7 hPa 0 mm - 0 W/m² -
1788579204 19.44° C 61% 1011.3 hPa 0 mm - 0 W/m² -
1788578903 19.44° C 61% 1011.2 hPa 0 mm - 0 W/m² -
1788578599 19.44° C 60% 1011.2 hPa 0 mm - 0 W/m² -
1788578294 19.44° C 60% 1011.2 hPa 0 mm - 0 W/m² -
1788578014 19.44° C 59% 1011.3 hPa 0 mm - 0 W/m² -
1788577685 19.44° C 59% 1011 hPa 0 mm - 0 W/m² -
1788577381 20° C 58% 1011.1 hPa 0 mm - 0 W/m² -
1788577080 20° C 57% 1011.2 hPa 0 mm - 0 W/m² -
1788576775 20° C 57% 1011.1 hPa 0 mm - 0 W/m² -
1788576471 20° C 56% 1011.3 hPa 0 mm - 0 W/m² -
1788576166 20° C 56% 1011.5 hPa 0 mm - 1 W/m² -
1788575862 20.56° C 55% 1011.3 hPa 0 mm - 2 W/m² -
1788575556 20.56° C 54% 1011.6 hPa 0 mm - 3 W/m² -
1788575255 20.56° C 55% 1011.5 hPa 0 mm - 5 W/m² -
1788574951 20.56° C 55% 1011.1 hPa 0 mm - 8 W/m² -
1788574645 21.11° C 54% 1011.2 hPa 0 mm - 10 W/m² -
1788574340 21.11° C 54% 1011.1 hPa 0 mm - 13 W/m² -
1788574035 21.11° C 53% 1011.1 hPa 0 mm - 16 W/m² -
1788573730 21.67° C 54% 1011.1 hPa 0 mm - 19 W/m² -
1788573428 22.22° C 53% 1011.2 hPa 0 mm - 24 W/m² -
1788573123 22.22° C 53% 1011.1 hPa 0 mm - 34 W/m² -
1788572822 22.78° C 52% 1011 hPa 0 mm - 39 W/m² -
1788572517 22.78° C 51% 1011.1 hPa 0 mm - 46 W/m² -

* Rain latest hour (hover to see other rain measurements)
** Current wind speed in m/s (hover to see current wind gust speed)